Location: Goll?ig?dem
(16.6773°N, 80.7332°E)
Time: 08:16:34
(UTC+00:00)

Envisat - Pass Details

Date: 04 October 2021
Orbit: 764 x 766 km, 98.2° (Epoch: 25 October)

Event Time Altitude Azimuth Distance (km) Brightness Sun altitude
Rises 23:31:44 0° 11° (N) 3,221 6.4 -14.2°
Reaches altitude 10° 23:34:02 10° 11° (N) 2,295 5.6 -13.7°
Maximum altitude 23:39:06 86° 283° (WNW) 768 2.9 -12.5°
Drops below altitude 10° 23:44:09 10° 194° (SSW) 2,291 5.3 -11.3°
Sets 23:46:27 0° 193° (SSW) 3,216 6.1 -10.7°
